WJA192 CYWG-CYQR

Flight info

Callsign WJA192
Flight time 0h 52m
Altitude 34000
Route LIVBI DCT DUKPO DCT FAREN DCT EMLIK DCT KEMKA KEMKA6
Aircraft B738/M-SDE2E3FGHIRWXY/LB1

Departure

Time 2026-04-29 01:30
Airport Winnipeg / James Armstrong Richardson International Airport (CYWG)

Arrival

Time 2026-04-29 02:22
Airport Regina International Airport (CYQR)
Time Latitude Longitude Altitude Speed Heading
2026-04-29 01:12 49.90673 -97.22618 785 ft 0 kts 167°
2026-04-29 01:21 49.90679 -97.22620 767 ft 0 kts 172°
2026-04-29 01:21 49.90686 -97.22621 785 ft 2 kts 174°
2026-04-29 01:21 49.90702 -97.22624 789 ft 2 kts 167°
2026-04-29 01:22 49.90718 -97.22630 785 ft 2 kts 167°
2026-04-29 01:22 49.90734 -97.22633 785 ft 2 kts 194°
2026-04-29 01:22 49.90748 -97.22622 785 ft 2 kts 236°
2026-04-29 01:22 49.90754 -97.22599 785 ft 2 kts 260°
2026-04-29 01:23 49.90754 -97.22595 785 ft 0 kts 260°
2026-04-29 01:24 49.90753 -97.22603 785 ft 0 kts 260°
2026-04-29 01:25 49.90753 -97.22609 785 ft 2 kts 261°
2026-04-29 01:25 49.90747 -97.22666 785 ft 9 kts 261°
2026-04-29 01:25 49.90731 -97.22798 785 ft 15 kts 252°
2026-04-29 01:26 49.90659 -97.22915 785 ft 16 kts 202°
2026-04-29 01:26 49.90557 -97.22900 785 ft 15 kts 161°
2026-04-29 01:26 49.90459 -97.22889 785 ft 14 kts 198°
2026-04-29 01:26 49.90368 -97.22939 785 ft 14 kts 198°
2026-04-29 01:27 49.90292 -97.23016 785 ft 13 kts 210°
2026-04-29 01:27 49.90210 -97.23070 785 ft 13 kts 212°
2026-04-29 01:27 49.90146 -97.23174 785 ft 14 kts 209°
2026-04-29 01:27 49.90055 -97.23105 785 ft 17 kts 138°
2026-04-29 01:28 49.89955 -97.22968 785 ft 21 kts 139°
2026-04-29 01:28 49.89856 -97.22811 785 ft 20 kts 128°
2026-04-29 01:28 49.89768 -97.22649 785 ft 19 kts 130°
2026-04-29 01:28 49.89693 -97.22528 785 ft 13 kts 162°
2026-04-29 01:29 49.89631 -97.22616 785 ft 13 kts 231°
2026-04-29 01:29 49.89593 -97.22682 785 ft 0 kts 227°
2026-04-29 01:29 49.89585 -97.22697 785 ft 6 kts 227°
2026-04-29 01:29 49.89551 -97.22756 784 ft 9 kts 229°
2026-04-29 01:30 49.89574 -97.22867 784 ft 16 kts 320°
2026-04-29 01:30 49.89772 -97.23135 783 ft 72 kts 319°
2026-04-29 01:30 49.90315 -97.23876 785 ft 134 kts 320°
2026-04-29 01:30 49.91060 -97.24800 1396 ft 139 kts 322°
2026-04-29 01:31 49.91872 -97.25757 2073 ft 153 kts 322°
2026-04-29 01:31 49.92746 -97.26804 2798 ft 163 kts 322°
2026-04-29 01:31 49.93648 -97.27887 3590 ft 166 kts 322°
2026-04-29 01:31 49.94424 -97.29378 3943 ft 198 kts 288°
2026-04-29 01:32 49.94394 -97.31645 4205 ft 225 kts 263°
2026-04-29 01:32 49.94130 -97.34189 4493 ft 249 kts 264°
2026-04-29 01:32 49.93893 -97.36898 5311 ft 255 kts 265°
2026-04-29 01:32 49.93689 -97.39607 6361 ft 252 kts 266°
2026-04-29 01:33 49.93513 -97.42320 7310 ft 254 kts 267°
2026-04-29 01:33 49.93355 -97.45076 8144 ft 258 kts 268°
2026-04-29 01:33 49.93207 -97.47879 8996 ft 262 kts 268°
2026-04-29 01:33 49.93067 -97.50720 9872 ft 266 kts 268°
2026-04-29 01:34 49.92930 -97.53622 10501 ft 278 kts 268°
2026-04-29 01:34 49.92787 -97.56762 10715 ft 303 kts 268°
2026-04-29 01:34 49.92635 -97.60081 11274 ft 313 kts 268°
2026-04-29 01:34 49.92480 -97.63474 12077 ft 317 kts 268°
2026-04-29 01:35 49.92324 -97.66898 12940 ft 320 kts 268°
2026-04-29 01:35 49.92165 -97.70353 13798 ft 323 kts 268°
2026-04-29 01:35 49.92005 -97.73860 14584 ft 327 kts 268°
2026-04-29 01:35 49.92043 -97.77400 15355 ft 330 kts 278°
2026-04-29 01:36 49.92441 -97.80913 16168 ft 333 kts 282°
2026-04-29 01:36 49.92898 -97.84464 16957 ft 337 kts 282°
2026-04-29 01:36 49.93365 -97.88054 17701 ft 343 kts 282°
2026-04-29 01:36 49.93832 -97.91663 18442 ft 348 kts 281°
2026-04-29 01:37 49.94312 -97.95414 19130 ft 352 kts 281°
2026-04-29 01:37 49.94785 -97.99157 19811 ft 355 kts 281°
2026-04-29 01:37 49.95253 -98.02886 20478 ft 359 kts 281°
2026-04-29 01:37 49.95729 -98.06709 21135 ft 362 kts 281°
2026-04-29 01:38 49.96207 -98.10570 21771 ft 366 kts 281°
2026-04-29 01:38 49.96689 -98.14478 22415 ft 370 kts 281°
2026-04-29 01:38 49.97175 -98.18428 23040 ft 374 kts 280°
2026-04-29 01:38 49.97662 -98.22407 23657 ft 378 kts 281°
2026-04-29 01:39 49.98154 -98.26435 24203 ft 380 kts 281°
2026-04-29 01:39 49.98647 -98.30483 24691 ft 384 kts 281°
2026-04-29 01:39 49.99145 -98.34582 25146 ft 388 kts 281°
2026-04-29 01:39 49.99646 -98.38727 25604 ft 392 kts 281°
2026-04-29 01:40 50.00151 -98.42913 26061 ft 395 kts 281°
2026-04-29 01:40 50.00658 -98.47129 26507 ft 399 kts 281°
2026-04-29 01:40 50.01170 -98.51395 26944 ft 403 kts 280°
2026-04-29 01:40 50.01683 -98.55692 27370 ft 406 kts 280°
2026-04-29 01:41 50.02199 -98.60026 27791 ft 410 kts 280°
2026-04-29 01:41 50.02719 -98.64404 28203 ft 413 kts 280°
2026-04-29 01:41 50.03241 -98.68823 28606 ft 417 kts 280°
2026-04-29 01:41 50.03765 -98.73266 28996 ft 420 kts 280°
2026-04-29 01:42 50.04292 -98.77753 29385 ft 423 kts 280°
2026-04-29 01:42 50.04820 -98.82263 29855 ft 424 kts 280°
2026-04-29 01:42 50.05346 -98.86778 30386 ft 423 kts 280°
2026-04-29 01:42 50.05869 -98.91271 30849 ft 422 kts 280°
2026-04-29 01:43 50.06388 -98.95750 31264 ft 421 kts 280°
2026-04-29 01:43 50.06907 -99.00245 31645 ft 422 kts 280°
2026-04-29 01:43 50.07425 -99.04751 32007 ft 424 kts 280°
2026-04-29 01:43 50.07943 -99.09275 32321 ft 425 kts 280°
2026-04-29 01:44 50.08459 -99.13805 32759 ft 424 kts 280°
2026-04-29 01:44 50.08970 -99.18308 33230 ft 422 kts 280°
2026-04-29 01:44 50.09478 -99.22804 33662 ft 421 kts 280°
2026-04-29 01:44 50.09986 -99.27300 34014 ft 422 kts 280°
2026-04-29 01:45 50.10494 -99.31820 34207 ft 426 kts 280°
2026-04-29 01:45 50.11006 -99.36393 34194 ft 430 kts 280°
2026-04-29 01:45 50.12021 -99.45506 34185 ft 422 kts 280°
2026-04-29 01:46 50.13013 -99.54486 34207 ft 421 kts 280°
2026-04-29 01:46 50.14002 -99.63499 34204 ft 423 kts 280°
2026-04-29 01:47 50.14988 -99.72549 34200 ft 424 kts 280°
2026-04-29 01:47 50.15970 -99.81625 34196 ft 425 kts 280°
2026-04-29 01:48 50.16921 -99.90707 34195 ft 425 kts 279°
2026-04-29 01:48 50.17694 -99.99842 34197 ft 424 kts 278°
2026-04-29 01:49 50.18421 -100.08978 34194 ft 424 kts 278°
2026-04-29 01:49 50.19155 -100.18092 34201 ft 423 kts 278°
2026-04-29 01:50 50.19892 -100.27178 34196 ft 422 kts 278°
2026-04-29 01:50 50.20625 -100.36246 34202 ft 421 kts 278°
2026-04-29 01:51 50.21350 -100.45300 34198 ft 420 kts 278°
2026-04-29 01:51 50.22063 -100.54293 34201 ft 420 kts 278°
2026-04-29 01:52 50.22774 -100.63344 34197 ft 420 kts 278°
2026-04-29 01:52 50.23466 -100.72401 34201 ft 420 kts 278°
2026-04-29 01:53 50.24156 -100.81451 34204 ft 420 kts 278°
2026-04-29 01:53 50.24845 -100.90505 34202 ft 420 kts 278°
2026-04-29 01:54 50.25528 -100.99560 34200 ft 420 kts 278°
2026-04-29 01:54 50.26204 -101.08624 34201 ft 420 kts 278°
2026-04-29 01:55 50.26760 -101.16154 34192 ft 419 kts 278°
2026-04-29 01:55 50.27420 -101.25200 34200 ft 419 kts 278°
2026-04-29 01:56 50.28059 -101.34084 34188 ft 401 kts 278°
2026-04-29 01:56 50.28673 -101.42692 34202 ft 398 kts 278°
2026-04-29 01:57 50.29284 -101.51304 34210 ft 399 kts 278°
2026-04-29 01:57 50.29587 -101.55619 33792 ft 402 kts 278°
2026-04-29 01:57 50.29884 -101.59899 33344 ft 393 kts 279°
2026-04-29 01:58 50.30183 -101.64199 32867 ft 392 kts 279°
2026-04-29 01:58 50.30467 -101.68349 32957 ft 376 kts 279°
2026-04-29 01:58 50.31029 -101.76532 32984 ft 386 kts 279°
2026-04-29 01:59 50.31315 -101.80705 33451 ft 381 kts 279°
2026-04-29 01:59 50.31583 -101.84715 34470 ft 363 kts 279°
2026-04-29 01:59 50.31854 -101.88745 34178 ft 382 kts 279°
2026-04-29 01:59 50.32137 -101.92926 34191 ft 390 kts 279°
2026-04-29 02:00 50.32715 -102.01566 34155 ft 406 kts 278°
2026-04-29 02:00 50.33287 -102.10337 34095 ft 399 kts 279°
2026-04-29 02:01 50.33561 -102.14604 33834 ft 391 kts 279°
2026-04-29 02:01 50.33832 -102.18811 33399 ft 388 kts 279°
2026-04-29 02:01 50.34102 -102.23008 32925 ft 387 kts 279°
2026-04-29 02:01 50.34373 -102.27213 32268 ft 390 kts 279°
2026-04-29 02:02 50.34645 -102.31458 31588 ft 394 kts 279°
2026-04-29 02:02 50.34918 -102.35739 30961 ft 397 kts 280°
2026-04-29 02:02 50.35190 -102.40049 30372 ft 398 kts 280°
2026-04-29 02:02 50.35456 -102.44308 29725 ft 398 kts 280°
2026-04-29 02:03 50.35723 -102.48618 28990 ft 398 kts 280°
2026-04-29 02:03 50.35981 -102.52945 28212 ft 400 kts 280°
2026-04-29 02:03 50.36219 -102.57298 27415 ft 401 kts 280°
2026-04-29 02:03 50.36448 -102.61656 26704 ft 401 kts 280°
2026-04-29 02:04 50.36676 -102.66014 25917 ft 403 kts 280°
2026-04-29 02:04 50.36903 -102.70374 25294 ft 401 kts 280°
2026-04-29 02:04 50.37126 -102.74702 24812 ft 396 kts 280°
2026-04-29 02:04 50.37346 -102.78971 24280 ft 391 kts 280°
2026-04-29 02:05 50.37568 -102.83237 23373 ft 396 kts 280°
2026-04-29 02:05 50.37794 -102.87545 22530 ft 397 kts 280°
2026-04-29 02:05 50.38015 -102.91833 21901 ft 393 kts 280°
2026-04-29 02:05 50.38226 -102.96005 21331 ft 388 kts 280°
2026-04-29 02:06 50.38437 -103.00194 20730 ft 384 kts 280°
2026-04-29 02:06 50.38645 -103.04344 20078 ft 381 kts 279°
2026-04-29 02:06 50.38852 -103.08476 19449 ft 379 kts 279°
2026-04-29 02:06 50.39056 -103.12583 18849 ft 377 kts 279°
2026-04-29 02:07 50.39257 -103.16668 18269 ft 374 kts 279°
2026-04-29 02:07 50.39455 -103.20716 17645 ft 371 kts 279°
2026-04-29 02:07 50.39649 -103.24717 17083 ft 366 kts 279°
2026-04-29 02:07 50.39839 -103.28676 16523 ft 362 kts 278°
2026-04-29 02:08 50.40027 -103.32596 15957 ft 359 kts 278°
2026-04-29 02:08 50.40211 -103.36477 15409 ft 355 kts 278°
2026-04-29 02:08 50.40393 -103.40317 14877 ft 352 kts 278°
2026-04-29 02:08 50.40571 -103.44124 14349 ft 349 kts 278°
2026-04-29 02:09 50.40747 -103.47895 13808 ft 346 kts 277°
2026-04-29 02:09 50.40920 -103.51638 13232 ft 342 kts 277°
2026-04-29 02:09 50.41091 -103.55345 12687 ft 339 kts 277°
2026-04-29 02:09 50.41251 -103.58912 12559 ft 317 kts 277°
2026-04-29 02:10 50.41398 -103.62239 12399 ft 296 kts 277°
2026-04-29 02:10 50.41536 -103.65354 12259 ft 277 kts 277°
2026-04-29 02:10 50.41666 -103.68314 12076 ft 269 kts 277°
2026-04-29 02:10 50.41793 -103.71180 11796 ft 266 kts 277°
2026-04-29 02:11 50.41923 -103.74068 11467 ft 265 kts 277°
2026-04-29 02:11 50.42053 -103.76942 11141 ft 264 kts 277°
2026-04-29 02:11 50.42180 -103.79811 10842 ft 263 kts 276°
2026-04-29 02:11 50.42304 -103.82662 10539 ft 261 kts 276°
2026-04-29 02:12 50.42426 -103.85501 10242 ft 260 kts 276°
2026-04-29 02:12 50.42543 -103.88325 9926 ft 259 kts 274°
2026-04-29 02:12 50.42272 -103.91126 9568 ft 263 kts 254°
2026-04-29 02:12 50.41663 -103.93820 9246 ft 262 kts 253°
2026-04-29 02:13 50.41049 -103.96512 8922 ft 261 kts 253°
2026-04-29 02:13 50.40447 -103.99180 8714 ft 255 kts 253°
2026-04-29 02:13 50.39870 -104.01754 8635 ft 245 kts 253°
2026-04-29 02:13 50.39321 -104.04216 8536 ft 233 kts 253°
2026-04-29 02:14 50.38801 -104.06564 8312 ft 225 kts 253°
2026-04-29 02:14 50.38291 -104.08872 7922 ft 224 kts 253°
2026-04-29 02:14 50.37784 -104.11179 7547 ft 224 kts 252°
2026-04-29 02:14 50.37278 -104.13479 7224 ft 222 kts 252°
2026-04-29 02:15 50.36775 -104.15765 6892 ft 221 kts 252°
2026-04-29 02:15 50.36273 -104.18043 6553 ft 221 kts 252°
2026-04-29 02:15 50.35776 -104.20286 6198 ft 221 kts 252°
2026-04-29 02:15 50.35273 -104.22552 6068 ft 222 kts 252°
2026-04-29 02:16 50.34762 -104.24845 6044 ft 223 kts 252°
2026-04-29 02:16 50.34268 -104.27125 6028 ft 219 kts 253°
2026-04-29 02:16 50.33803 -104.29367 5993 ft 214 kts 253°
2026-04-29 02:16 50.33345 -104.31587 5725 ft 215 kts 253°
2026-04-29 02:17 50.32884 -104.33822 5436 ft 217 kts 253°
2026-04-29 02:17 50.32418 -104.36074 5153 ft 218 kts 253°
2026-04-29 02:17 50.31948 -104.38336 4906 ft 218 kts 253°
2026-04-29 02:17 50.31482 -104.40568 4756 ft 213 kts 254°
2026-04-29 02:18 50.31025 -104.42748 4451 ft 210 kts 253°
2026-04-29 02:18 50.30570 -104.44916 4190 ft 206 kts 253°
2026-04-29 02:18 50.30367 -104.47066 4021 ft 199 kts 285°
2026-04-29 02:18 50.31072 -104.48790 4044 ft 187 kts 319°
2026-04-29 02:19 50.31974 -104.50121 4015 ft 170 kts 317°
2026-04-29 02:19 50.32803 -104.51365 4021 ft 165 kts 319°
2026-04-29 02:19 50.33660 -104.52605 4024 ft 170 kts 319°
2026-04-29 02:19 50.34537 -104.53856 4023 ft 169 kts 319°
2026-04-29 02:20 50.35396 -104.55074 3833 ft 164 kts 319°
2026-04-29 02:20 50.36234 -104.56261 3631 ft 160 kts 320°
2026-04-29 02:20 50.37053 -104.57418 3400 ft 155 kts 320°
2026-04-29 02:20 50.37830 -104.58516 3213 ft 143 kts 319°
2026-04-29 02:21 50.38514 -104.59512 3012 ft 133 kts 318°
2026-04-29 02:21 50.39205 -104.60518 2836 ft 137 kts 319°
2026-04-29 02:21 50.39918 -104.61516 2674 ft 140 kts 320°
2026-04-29 02:21 50.40653 -104.62494 2424 ft 141 kts 319°
2026-04-29 02:22 50.41378 -104.63534 2188 ft 138 kts 319°
2026-04-29 02:22 50.42095 -104.64521 2035 ft 138 kts 322°
2026-04-29 02:22 50.42794 -104.65529 1890 ft 137 kts 319°
2026-04-29 02:22 50.43326 -104.66257 1894 ft 43 kts 318°
2026-04-29 02:23 50.43436 -104.66282 1893 ft 16 kts 50°
2026-04-29 02:23 50.43493 -104.66150 1896 ft 12 kts 94°
2026-04-29 02:23 50.43437 -104.66050 1890 ft 12 kts 139°
2026-04-29 02:23 50.43375 -104.65962 1889 ft 12 kts 136°
2026-04-29 02:24 50.43318 -104.65877 1888 ft 9 kts 135°
2026-04-29 02:24 50.43333 -104.65793 1889 ft 9 kts 48°
2026-04-29 02:24 50.43364 -104.65740 1894 ft 1 kts 48°
2026-04-29 02:25 50.43365 -104.65739 1895 ft 0 kts 48°